TimeEDT,TemperatureF,Dew PointF,Humidity,Sea Level PressureIn,VisibilityMPH,Wind Direction,Wind SpeedMPH,Gust SpeedMPH,PrecipitationIn,Events,Conditions,WindDirDegrees,DateUTC
12:51 AM,60.1,57.0,90,30.04,10.0,Calm,Calm,-,N/A,,Overcast,0,2012-10-03 04:51:00
1:51 AM,61.0,57.9,90,30.05,10.0,Calm,Calm,-,N/A,,Overcast,0,2012-10-03 05:51:00
2:51 AM,61.0,57.9,90,30.04,10.0,Calm,Calm,-,N/A,,Overcast,0,2012-10-03 06:51:00
3:12 AM,60.8,57.2,88,30.05,10.0,Calm,Calm,-,N/A,,Overcast,0,2012-10-03 07:12:00
3:51 AM,61.0,57.9,90,30.05,10.0,Calm,Calm,-,N/A,,Overcast,0,2012-10-03 07:51:00
4:13 AM,60.8,57.2,88,30.06,4.0,Calm,Calm,-,0.00,Rain,Light Rain,0,2012-10-03 08:13:00
4:27 AM,60.8,57.2,88,30.06,3.0,Calm,Calm,-,0.00,,Overcast,0,2012-10-03 08:27:00
4:34 AM,60.8,57.2,88,30.06,2.0,Calm,Calm,-,0.00,,Overcast,0,2012-10-03 08:34:00
4:51 AM,60.1,57.9,93,30.06,2.0,Calm,Calm,-,0.01,,Overcast,0,2012-10-03 08:51:00
4:56 AM,60.8,57.2,88,30.06,1.8,Calm,Calm,-,N/A,,Overcast,0,2012-10-03 08:56:00
4:59 AM,60.8,57.2,88,30.06,2.0,Calm,Calm,-,N/A,,Overcast,0,2012-10-03 08:59:00
5:17 AM,60.8,57.2,88,30.06,3.0,Calm,Calm,-,N/A,,Overcast,0,2012-10-03 09:17:00
5:27 AM,60.8,57.2,88,30.07,2.5,Calm,Calm,-,N/A,,Overcast,0,2012-10-03 09:27:00
5:51 AM,60.1,57.9,93,30.06,2.5,Calm,Calm,-,0.01,,Overcast,0,2012-10-03 09:51:00
6:06 AM,60.8,57.2,88,30.07,3.0,Calm,Calm,-,N/A,,Overcast,0,2012-10-03 10:06:00
6:22 AM,60.8,57.2,88,30.08,2.5,Calm,Calm,-,0.00,Rain,Light Rain,0,2012-10-03 10:22:00
6:51 AM,60.1,57.9,93,30.08,2.5,Calm,Calm,-,0.01,,Overcast,0,2012-10-03 10:51:00
7:05 AM,60.8,57.2,88,30.09,1.5,North,3.5,-,0.00,Rain,Light Rain,10,2012-10-03 11:05:00
7:37 AM,60.8,59.0,94,30.10,2.0,Calm,Calm,-,0.01,,Overcast,0,2012-10-03 11:37:00
7:48 AM,60.8,59.0,94,30.10,1.5,NE,3.5,-,0.01,,Overcast,50,2012-10-03 11:48:00
7:51 AM,60.1,59.0,96,30.09,1.5,NE,3.5,-,0.01,,Overcast,50,2012-10-03 11:51:00
8:44 AM,60.8,57.2,88,30.12,2.0,North,4.6,-,0.01,,Overcast,360,2012-10-03 12:44:00
8:51 AM,60.1,57.9,93,30.12,2.5,North,5.8,-,0.01,Rain,Light Rain,360,2012-10-03 12:51:00
9:42 AM,60.8,59.0,94,30.12,2.0,NNE,4.6,-,0.03,Rain,Light Rain,30,2012-10-03 13:42:00
9:51 AM,60.1,59.0,96,30.11,2.5,Variable,3.5,-,0.03,Rain,Light Rain,0,2012-10-03 13:51:00
10:51 AM,62.1,60.1,93,30.11,3.0,ENE,4.6,-,0.01,,Overcast,60,2012-10-03 14:51:00
11:20 AM,62.6,60.8,94,30.12,1.8,ENE,3.5,-,0.00,Rain,Light Rain,60,2012-10-03 15:20:00
11:51 AM,62.1,60.1,93,30.12,1.8,North,4.6,-,0.01,,Overcast,360,2012-10-03 15:51:00
11:59 AM,62.6,60.8,94,30.13,2.5,North,4.6,-,N/A,,Overcast,350,2012-10-03 15:59:00
12:04 PM,62.6,60.8,94,30.13,1.8,North,4.6,-,0.01,Rain,Light Rain,360,2012-10-03 16:04:00
12:15 PM,62.6,60.8,94,30.12,1.0,NNE,4.6,-,0.02,Rain,Light Rain,20,2012-10-03 16:15:00
12:36 PM,62.6,60.8,94,30.12,2.5,North,4.6,-,0.03,Rain,Light Rain,10,2012-10-03 16:36:00
12:46 PM,62.6,60.8,94,30.12,3.0,North,4.6,-,0.04,Rain,Light Rain,360,2012-10-03 16:46:00
12:51 PM,62.1,60.1,93,30.11,3.0,NNE,3.5,-,0.04,Rain,Light Rain,30,2012-10-03 16:51:00
1:06 PM,62.6,60.8,94,30.11,1.8,NNE,4.6,-,0.00,Rain,Light Rain,30,2012-10-03 17:06:00
1:20 PM,62.6,60.8,94,30.11,2.5,North,4.6,-,0.01,Rain,Light Rain,10,2012-10-03 17:20:00
1:30 PM,62.6,60.8,94,30.11,4.0,NE,4.6,-,0.01,,Overcast,40,2012-10-03 17:30:00
1:51 PM,62.1,61.0,96,30.10,3.0,NE,4.6,-,0.01,,Overcast,40,2012-10-03 17:51:00
2:20 PM,62.6,60.8,94,30.11,4.0,North,3.5,-,0.00,Rain,Light Rain,10,2012-10-03 18:20:00
2:42 PM,62.6,60.8,94,30.11,2.5,NNE,4.6,-,0.01,Rain,Light Rain,30,2012-10-03 18:42:00
2:51 PM,62.1,60.1,93,30.10,1.8,NE,4.6,-,0.01,Rain,Light Rain,40,2012-10-03 18:51:00
2:58 PM,62.6,60.8,94,30.11,1.8,Variable,6.9,-,0.00,Rain,Light Rain,0,2012-10-03 18:58:00
3:04 PM,62.6,60.8,94,30.11,2.0,NE,4.6,-,0.00,,Overcast,50,2012-10-03 19:04:00
3:36 PM,62.6,60.8,94,30.11,1.8,NE,5.8,-,0.01,Rain,Light Rain,50,2012-10-03 19:36:00
3:43 PM,62.6,60.8,94,30.11,3.0,East,5.8,-,0.01,,Overcast,80,2012-10-03 19:43:00
3:51 PM,62.1,60.1,93,30.10,4.0,East,4.6,-,0.01,,Overcast,80,2012-10-03 19:51:00
4:30 PM,60.8,59.0,94,30.12,5.0,ENE,3.5,-,0.00,Rain,Light Rain,60,2012-10-03 20:30:00
4:46 PM,60.8,59.0,94,30.12,4.0,East,4.6,-,0.00,,Overcast,90,2012-10-03 20:46:00
4:51 PM,61.0,59.0,93,30.12,4.0,ENE,3.5,-,0.00,,Overcast,70,2012-10-03 20:51:00
4:58 PM,60.8,59.0,94,30.12,5.0,East,3.5,-,N/A,,Overcast,80,2012-10-03 20:58:00
5:51 PM,60.1,59.0,96,30.13,2.5,NE,4.6,-,0.01,Rain,Light Rain,50,2012-10-03 21:51:00
5:58 PM,60.8,59.0,94,30.13,4.0,Calm,Calm,-,0.00,Rain,Light Rain,0,2012-10-03 21:58:00
6:04 PM,60.8,59.0,94,30.14,2.5,Calm,Calm,-,0.00,Rain,Light Rain,0,2012-10-03 22:04:00
6:24 PM,60.8,59.0,94,30.14,3.0,NE,3.5,-,0.01,Rain,Light Rain,40,2012-10-03 22:24:00
6:51 PM,60.1,59.0,96,30.13,4.0,ENE,3.5,-,0.01,,Overcast,70,2012-10-03 22:51:00
7:51 PM,59.0,57.9,96,30.14,9.0,Calm,Calm,-,N/A,,Overcast,0,2012-10-03 23:51:00
8:51 PM,59.0,57.9,96,30.14,5.0,Calm,Calm,-,N/A,,Overcast,0,2012-10-04 00:51:00
9:51 PM,59.0,57.9,96,30.16,4.0,Calm,Calm,-,N/A,,Overcast,0,2012-10-04 01:51:00
10:08 PM,57.2,57.2,100,30.16,2.5,ENE,4.6,-,N/A,,Overcast,60,2012-10-04 02:08:00
10:22 PM,57.2,57.2,100,30.16,1.2,NE,3.5,-,N/A,,Overcast,50,2012-10-04 02:22:00
11:24 PM,57.2,57.2,100,30.17,3.0,NE,3.5,-,N/A,,Overcast,40,2012-10-04 03:24:00